Погода в Кадошкино

Россия / Республика Мордовия     54°01′34″N   44°25′00″E
темп.,
°C
ветер,
м/с
пор.,
м/с
влажн.,
%
обл.,
%
осадки,
мм/ч
давл.,
гПа
погр.,
м
6 марта, сб
сб600:00−11з469626 0.0 101383
03:00−13з349617 0.0 101537
06:00−15зсз23950 0.0 101521
09:00−12сз11910 0.0 101754
12:00−8зюз11820 0.0 1017228
15:00−7юз23860 0.0 1015284
18:00−12зюз22910 0.0 101521
21:00−12зюз239230 0.0 101523
7 марта, вс
вс700:00−14зюз339780 0.0 101424
03:00−14зюз349878 0.1 101456
06:00−15юз459883 0.0 101395
09:00−12юз5109385 0.1 1012276
12:00−7юз7128576 0.0 1009708
15:00−6ююз10158888 0.1 1005913
18:00−6юз101793100 0.9 10001150
21:00−5юз101793100 1.8 998946
8 марта, пн
пн800:00−7з51385100 1.0 998587
03:00−11зюз5118567 1.0 1000195
06:00−13юз511840 0.0 1000191
09:00−10ююз6128211 0.0 998304
12:00−5ююз71294100 0.2 996925
15:00−6зюз91378100 1.6 9961167
18:00−7з91690100 0.3 998820
21:00−9з71489100 1.0 1002689
9 марта, вт
вт900:00−10з71393100 0.1 1004538
03:00−11з61194100 0.3 1007478
06:00−14з4997100 0.1 1009250
09:00−15зсз5896100 0.1 1011303
12:00−12зсз4691100 0.0 1012564
15:00−11зсз5789100 0.1 1013721
18:00−13зсз3796100 0.1 1014197
21:00−16зсз4897100 0.2 1016174
10 марта, ср
ср1000:00−20сз3410095 0.1 101768
03:00−23зсз3410097 0.1 101958
06:00−25зсз3410098 0.0 102036
09:00−22зсз349893 0.0 1021151
12:00−17зсз238772 0.0 1020365
15:00−15зсз238386 0.0 1020540
18:00−20ссз2299100 0.0 102120
21:00−22св2310098 0.1 102323